EW0890 Weather Reports


time (UTC)temp
F
wind
direction
speed
knots
gust
knots
rain 1hr
in
rain 24hr
in
rain mn
in
humidity
%
barometer
mb
20260510090504 51 29 0.0 0.0 0.00 0.00 0.00 76 1013.5
20260510090031 52 29 0.0 0.0 0.00 0.00 0.00 76 1013.5
20260510085511 52 29 0.0 0.0 0.00 0.00 0.00 76 1013.6
20260510085002 53 29 0.0 0.0 0.00 0.00 0.00 76 1013.5
20260510084506 53 29 0.0 0.0 0.00 0.00 0.00 75 1013.6
20260510084004 53 36 0.0 0.0 0.00 0.00 0.00 75 1013.5
20260510083505 53 36 0.0 0.0 0.00 0.00 0.00 75 1013.5
20260510083009 54 36 0.0 0.0 0.00 0.00 0.00 74 1013.6
20260510082506 54 36 0.0 0.0 0.00 0.00 0.00 74 1013.5
20260510082004 54 36 0.0 0.0 0.00 0.00 0.00 74 1013.4
20260510081514 54 36 0.0 0.0 0.00 0.00 0.00 74 1013.4
20260510081004 54 36 0.0 0.0 0.00 0.00 0.00 74 1013.3
20260510080506 54 36 0.0 0.0 0.00 0.00 0.00 72 1013.2
20260510080015 54 36 0.0 0.0 0.00 0.00 0.00 72 1013.3
20260510075507 55 36 0.0 0.0 0.00 0.00 0.00 72 1013.4
20260510074521 55 36 0.0 0.0 0.00 0.00 0.00 71 1013.3
20260510074006 55 36 0.0 0.0 0.00 0.00 0.00 70 1013.3
20260510073503 56 36 0.0 0.0 0.00 0.00 0.00 69 1013.3
20260510073005 56 45 0.0 0.0 0.00 0.00 0.00 69 1013.2
20260510071510 56 45 0.0 0.0 0.00 0.00 0.00 68 1013.2
20260510071004 56 45 0.0 0.0 0.00 0.00 0.00 67 1013.2
20260510070503 56 45 0.0 0.0 0.00 0.00 0.00 67 1013.3
20260510070014 56 45 0.0 0.0 0.00 0.00 0.00 68 1013.2
20260510065509 56 45 0.0 0.0 0.00 0.00 0.00 68 1013.1
20260510064520 57 41 0.0 1.7 0.00 0.00 0.00 67 1012.5
20260510064009 57 31 0.9 1.7 0.00 0.00 0.00 68 1012.4
20260510063509 57 335 0.0 1.7 0.00 0.00 0.00 67 1012.4
20260510063022 57 23 0.0 3.5 0.00 0.00 0.00 67 1012.2
20260510062511 57 13 0.9 4.3 0.00 0.00 0.00 68 1012.1
20260510061506 57 39 1.7 3.5 0.00 0.00 0.00 67 1012.4
20260510061004 58 45 1.7 3.5 0.00 0.00 0.00 68 1012.3
20260510060009 58 85 0.9 1.7 0.00 0.00 0.00 65 1012.2
20260510055508 58 168 0.0 0.0 0.00 0.00 0.00 66 1012.3
20260510054520 59 168 0.0 0.0 0.00 0.00 0.00 62 1012.2
20260510054008 59 150 0.0 0.0 0.00 0.00 0.00 61 1012.0
20260510053021 59 155 0.0 0.9 0.00 0.00 0.00 60 1012.0
20260510052507 60 236 0.0 1.7 0.00 0.00 0.00 60 1011.9
20260510052009 60 292 0.0 1.7 0.00 0.00 0.00 60 1011.7
20260510051525 60 64 0.0 1.7 0.00 0.00 0.00 59 1011.6
20260510051007 60 92 0.0 1.7 0.00 0.00 0.00 59 1011.6
20260510050008 61 119 0.9 2.6 0.00 0.00 0.00 59 1011.5
20260510044510 61 233 0.9 2.6 0.00 0.00 0.00 57 1011.4
20260510044002 61 88 0.9 2.6 0.00 0.00 0.00 58 1011.4
20260510043021 61 326 0.9 2.6 0.00 0.00 0.00 59 1011.4
20260510041522 61 323 0.9 3.5 0.00 0.00 0.00 60 1011.1
20260510041008 61 303 0.0 0.9 0.00 0.00 0.00 60 1011.0
20260510040509 61 328 0.0 0.9 0.00 0.00 0.00 60 1011.0
20260510040024 62 337 0.0 0.0 0.00 0.00 0.00 60 1011.0
20260510035507 62 302 0.0 0.0 0.00 0.00 0.00 59 1010.9
20260510034507 62 302 0.0 0.0 0.00 0.00 0.00 60 1010.7
20260510034003 62 302 0.0 0.0 0.00 0.00 0.00 60 1010.5
20260510033012 62 302 0.0 0.9 0.00 0.00 0.00 57 1010.2
20260510032009 62 326 0.0 2.6 0.00 0.00 0.00 56 1010.0
20260510031523 62 336 0.9 2.6 0.00 0.00 0.00 57 1009.9
20260510025509 62 266 0.0 0.0 0.00 0.00 0.00 62 1009.6
20260510025009 62 262 0.0 0.0 0.00 0.00 0.00 61 1009.6
20260510024526 62 261 0.0 0.0 0.00 0.00 0.00 62 1009.5
20260510024008 63 261 0.0 0.0 0.00 0.00 0.00 61 1009.5
20260510023008 63 333 0.0 0.0 0.00 0.00 0.00 56 1009.3
20260510022004 64 333 0.0 0.0 0.00 0.00 0.00 55 1009.2
20260510020018 64 337 0.0 0.0 0.00 0.00 0.00 54 1009.0
20260510014010 65 344 0.0 1.7 0.00 0.00 0.00 51 1008.5
20260510013512 65 328 0.0 2.6 0.00 0.00 0.00 50 1008.5
20260510013026 65 338 0.9 4.3 0.00 0.00 0.00 50 1008.4
20260510012004 65 322 0.0 2.6 0.00 0.00 0.00 50 1008.3
20260510011512 65 310 0.0 2.6 0.00 0.00 0.00 49 1008.3
20260510011003 66 6 0.9 2.6 0.00 0.00 0.00 49 1008.2
20260510005509 66 188 0.9 2.6 0.00 0.00 0.00 46 1008.0
20260510003508 68 67 0.9 3.5 0.00 0.00 0.00 42 1007.7
20260510002509 69 204 0.9 2.6 0.00 0.00 0.00 40 1007.5
20260510002011 70 274 0.9 3.5 0.00 0.00 0.00 39 1007.3
20260510001526 71 1 0.9 4.3 0.00 0.00 0.00 38 1007.3
20260510001004 71 339 2.6 5.2 0.00 0.00 0.00 36 1007.2
20260510000504 72 337 0.9 5.2 0.00 0.00 0.00 36 1007.1
20260509235505 72 345 2.6 5.2 0.00 0.00 0.00 33 1007.0
20260509234519 73 316 1.7 7.0 0.00 0.00 0.00 33 1006.9
20260509234008 73 354 1.7 7.0 0.00 0.00 0.00 34 1006.9
20260509232507 73 331 1.7 6.1 0.00 0.00 0.00 34 1006.9
20260509232002 73 64 2.6 6.1 0.00 0.00 0.00 33 1006.9
20260509231508 73 341 1.7 7.0 0.00 0.00 0.00 33 1006.8
20260509231003 74 270 3.5 8.7 0.00 0.00 0.00 31 1006.7
20260509230011 75 56 2.6 8.7 0.00 0.00 0.00 33 1006.4
20260509224008 76 308 2.6 6.1 0.00 0.00 0.00 28 1006.1
20260509223506 76 283 1.7 6.1 0.00 0.00 0.00 28 1006.1
20260509223018 76 323 2.6 11.3 0.00 0.00 0.00 29 1006.0
20260509222507 76 297 1.7 14.8 0.00 0.00 0.00 31 1006.1
20260509222009 76 296 7.8 16.5 0.00 0.00 0.00 30 1006.1
20260509221523 76 284 8.7 16.5 0.00 0.00 0.00 27 1006.2
20260509220506 77 279 10.4 18.2 0.00 0.00 0.00 27 1006.1
20260509220009 77 273 13.9 17.4 0.00 0.00 0.00 28 1006.0
20260509215504 77 281 11.3 18.2 0.00 0.00 0.00 28 1006.1
20260509215006 77 254 13.0 20.0 0.00 0.00 0.00 29 1006.1
20260509214005 76 266 7.8 18.2 0.00 0.00 0.00 35 1006.0
20260509213504 75 292 9.6 16.5 0.00 0.00 0.00 40 1006.1
20260509212507 75 289 9.6 15.6 0.00 0.00 0.00 40 1006.2
20260509211527 76 262 11.3 18.2 0.00 0.00 0.00 38 1006.2
20260509211008 76 271 13.9 18.2 0.00 0.00 0.00 37 1006.2
20260509210514 76 259 12.2 16.5 0.00 0.00 0.00 39 1006.3
20260509210023 75 259 9.6 18.2 0.00 0.00 0.00 39 1006.4
20260509205504 75 271 11.3 18.2 0.00 0.00 0.00 38 1006.4
20260509204508 75 276 7.8 15.6 0.00 0.00 0.00 40 1006.5
20260509204004 75 310 10.4 15.6 0.00 0.00 0.00 39 1006.5
20260509203503 75 290 11.3 15.6 0.00 0.00 0.00 37 1006.4
20260509202503 75 287 13.9 16.5 0.00 0.00 0.00 36 1006.4
20260509202006 75 285 10.4 18.2 0.00 0.00 0.00 37 1006.4
20260509201518 76 275 12.2 18.2 0.00 0.00 0.00 36 1006.4
20260509201007 75 316 2.6 18.2 0.00 0.00 0.00 40 1006.4
20260509200509 75 262 9.6 18.2 0.00 0.00 0.00 37 1006.4
20260509200024 75 281 10.4 18.2 0.00 0.00 0.00 42 1006.4
20260509195513 74 316 9.6 18.2 0.00 0.00 0.00 41 1006.5
20260509195008 74 266 10.4 20.0 0.00 0.00 0.00 42 1006.4
20260509194526 74 279 14.8 20.0 0.00 0.00 0.00 41 1006.6
20260509193503 74 281 6.1 18.2 0.00 0.00 0.00 39 1006.6
20260509193010 74 278 12.2 18.2 0.00 0.00 0.00 42 1006.6
20260509192507 74 285 12.2 22.6 0.00 0.00 0.00 42 1006.6
20260509192009 74 281 13.9 22.6 0.00 0.00 0.00 40 1006.6
20260509191518 74 307 8.7 21.7 0.00 0.00 0.00 44 1006.6
20260509191006 74 283 12.2 21.7 0.00 0.00 0.00 42 1006.6
20260509190507 74 276 9.6 21.7 0.00 0.00 0.00 42 1006.6
20260509185507 73 274 13.0 19.1 0.00 0.00 0.00 50 1006.5
20260509185014 73 280 13.9 20.9 0.00 0.00 0.00 48 1006.5
20260509184531 74 272 15.6 20.9 0.00 0.00 0.00 49 1006.3
20260509184008 73 283 8.7 21.7 0.00 0.00 0.00 47 1006.3
20260509183511 73 281 14.8 21.7 0.00 0.00 0.00 47 1006.2
20260509183026 73 233 13.0 19.1 0.00 0.00 0.00 54 1006.2
20260509182504 73 276 13.0 20.9 0.00 0.00 0.00 46 1006.2
20260509182010 72 282 13.0 20.9 0.00 0.00 0.00 52 1006.1
20260509181007 72 269 13.9 20.0 0.00 0.00 0.00 52 1006.2
20260509180508 72 249 12.2 20.0 0.00 0.00 0.00 51 1006.2
20260509175508 72 257 13.9 18.2 0.00 0.00 0.00 53 1006.2
20260509175008 71 250 13.9 18.2 0.00 0.00 0.00 56 1006.2
20260509174008 71 253 13.0 17.4 0.00 0.03 0.00 57 1006.1
20260509173509 70 250 10.4 19.1 0.00 0.06 0.00 60 1006.1
20260509173024 70 267 14.8 19.1 0.00 0.07 0.00 58 1005.9
20260509172512 70 234 12.2 19.1 0.00 0.08 0.00 61 1005.9
20260509172013 70 253 12.2 18.2 0.00 0.08 0.00 61 1006.0
20260509171003 69 257 13.0 19.1 0.00 0.09 0.00 63 1006.0
20260509170504 69 268 13.0 19.1 0.00 0.09 0.00 63 1006.1
20260509165508 68 262 15.6 20.0 0.00 0.10 0.00 67 1006.2
20260509165005 68 262 13.9 20.0 0.00 0.10 0.00 67 1006.1
20260509164006 67 267 14.8 19.1 0.00 0.10 0.00 68 1006.0
20260509163513 67 259 14.8 19.1 0.00 0.10 0.00 69 1006.1
20260509162008 66 261 13.9 20.0 0.00 0.10 0.00 73 1005.9
20260509161524 66 252 13.0 20.0 0.00 0.10 0.00 73 1005.9
20260509161014 66 274 13.9 18.2 0.00 0.10 0.00 74 1005.8
20260509160510 66 255 14.8 18.2 0.00 0.10 0.00 75 1005.8
20260509160012 65 248 11.3 19.1 0.00 0.10 0.00 76 1005.9
20260509155504 65 250 15.6 19.1 0.00 0.10 0.00 77 1006.0
20260509155006 65 250 13.0 20.0 0.00 0.10 0.00 77 1005.9
20260509154522 65 253 13.0 20.0 0.00 0.10 0.00 76 1005.9
20260509154009 64 272 11.3 18.2 0.00 0.10 0.00 82 1006.0
20260509153506 64 255 13.0 18.2 0.00 0.10 0.00 79 1006.1
20260509153023 64 269 13.0 17.4 0.00 0.10 0.00 80 1006.0
20260509152512 63 248 13.9 17.4 0.00 0.10 0.00 79 1005.8
20260509152008 63 254 13.9 17.4 0.00 0.10 0.00 79 1005.7
20260509151006 63 243 11.3 14.8 0.00 0.10 0.00 83 1005.8
20260509150509 62 234 11.3 13.9 0.00 0.10 0.00 81 1006.0
20260509150026 61 267 11.3 16.5 0.00 0.10 0.00 82 1006.0
20260509145510 61 250 13.0 16.5 0.00 0.10 0.00 82 1006.2
20260509145011 61 256 11.3 17.4 0.00 0.10 0.00 86 1006.4
20260509144519 60 249 13.0 17.4 0.00 0.10 0.00 84 1006.4
20260509144003 60 248 12.2 15.6 0.00 0.10 0.00 86 1006.3
20260509143508 60 231 12.2 17.4 0.00 0.10 0.00 86 1006.4
20260509143006 59 245 13.0 19.1 0.00 0.10 0.00 87 1006.4
20260509142503 59 245 12.2 19.1 0.00 0.10 0.00 89 1006.3
20260509142001 59 232 13.0 18.2 0.00 0.10 0.00 90 1006.2
20260509141508 58 240 12.2 17.4 0.00 0.10 0.00 90 1006.1
20260509141005 58 237 13.9 17.4 0.00 0.10 0.00 90 1006.0
20260509140503 58 247 14.8 17.4 0.00 0.10 0.00 91 1005.9
20260509140009 57 257 13.0 15.6 0.00 0.10 0.00 93 1006.0
20260509135507 57 255 13.9 15.6 0.00 0.10 0.00 93 1005.9
20260509135004 56 253 11.3 14.8 0.00 0.10 0.00 94 1006.0
20260509134510 56 250 11.3 17.4 0.00 0.10 0.00 95 1005.9
20260509134004 55 257 13.9 17.4 0.00 0.10 0.00 95 1005.9
20260509133512 55 241 13.9 17.4 0.00 0.10 0.00 95 1006.0
20260509133017 55 241 13.9 17.4 0.00 0.10 0.00 96 1005.9
20260509132509 54 234 13.0 16.5 0.00 0.10 0.00 96 1006.0
20260509132007 54 245 14.8 16.5 0.00 0.10 0.00 97 1005.9
20260509131504 54 226 12.2 16.5 0.00 0.10 0.00 97 1006.0
20260509131002 54 250 12.2 16.5 0.00 0.10 0.00 98 1005.9
20260509130504 53 238 13.0 15.6 0.00 0.10 0.00 98 1005.9
20260509130006 53 248 12.2 15.6 0.00 0.10 0.00 98 1006.0
20260509125504 52 247 12.2 16.5 0.00 0.10 0.00 98 1006.0
20260509125007 52 238 13.0 16.5 0.00 0.10 0.00 98 1005.8
20260509124512 52 236 13.0 16.5 0.00 0.10 0.00 98 1005.8
20260509124004 52 240 13.0 16.5 0.00 0.10 0.00 98 1005.8
20260509123504 52 229 13.0 16.5 0.00 0.10 0.00 98 1005.8
20260509123016 52 230 13.0 15.6 0.00 0.10 0.00 98 1005.8
20260509122505 52 248 12.2 14.8 0.00 0.10 0.00 98 1005.7
20260509122004 52 232 12.2 13.9 0.00 0.10 0.00 98 1005.7
20260509121518 52 241 11.3 13.9 0.00 0.10 0.00 98 1005.7
20260509121011 52 222 10.4 13.0 0.00 0.10 0.00 98 1005.7
20260509120507 52 235 10.4 13.0 0.00 0.10 0.00 98 1005.7
20260509120004 52 236 10.4 13.0 0.00 0.10 0.00 98 1005.7
20260509115504 52 239 10.4 13.0 0.00 0.10 0.00 98 1005.7
20260509115004 52 236 9.6 13.0 0.00 0.10 0.00 98 1005.7
20260509114508 52 225 10.4 12.2 0.00 0.10 0.00 98 1005.7
20260509114004 52 226 9.6 14.8 0.00 0.10 0.00 98 1005.7
20260509113504 53 228 10.4 14.8 0.00 0.10 0.00 98 1005.6
20260509113012 53 248 10.4 13.9 0.00 0.10 0.00 98 1005.6
20260509112503 53 244 9.6 14.8 0.00 0.10 0.00 98 1005.6
20260509112004 53 231 11.3 14.8 0.00 0.10 0.00 98 1005.6
20260509111520 53 248 12.2 14.8 0.00 0.10 0.00 98 1005.5
20260509111006 53 233 10.4 13.9 0.00 0.10 0.00 98 1005.7
20260509110504 53 244 9.6 12.2 0.00 0.10 0.00 98 1005.7
20260509110024 53 242 8.7 12.2 0.00 0.10 0.00 98 1005.7
20260509105508 53 234 9.6 12.2 0.00 0.10 0.00 98 1005.7
20260509105009 53 239 8.7 12.2 0.00 0.10 0.00 98 1005.8
20260509104505 53 248 9.6 12.2 0.00 0.10 0.00 98 1005.8
20260509104002 53 233 9.6 11.3 0.00 0.10 0.00 98 1005.9
20260509103502 53 251 8.7 11.3 0.00 0.10 0.00 98 1005.9
20260509103016 53 238 8.7 11.3 0.00 0.10 0.00 98 1006.0
20260509102505 53 254 7.0 10.4 0.00 0.10 0.00 98 1006.0
20260509102004 53 258 7.8 9.6 0.00 0.10 0.00 98 1005.9
20260509101516 53 248 7.0 10.4 0.00 0.10 0.00 98 1005.8
20260509101004 53 242 7.8 10.4 0.00 0.10 0.00 98 1005.8
20260509100506 53 243 7.0 10.4 0.00 0.10 0.00 98 1005.8
20260509100022 53 239 6.1 10.4 0.00 0.10 0.00 98 1005.9
20260509095507 53 231 7.8 9.6 0.00 0.10 0.00 98 1005.9
20260509095010 53 246 7.0 9.6 0.00 0.10 0.00 98 1005.9
20260509094524 53 239 7.0 9.6 0.00 0.10 0.00 98 1006.0
20260509094009 53 244 7.0 8.7 0.00 0.10 0.00 98 1006.0
20260509093508 52 245 6.1 9.6 0.00 0.10 0.00 98 1006.0
20260509093006 52 236 7.0 9.6 0.00 0.10 0.00 98 1006.1
20260509092507 52 239 7.0 9.6 0.00 0.10 0.00 97 1006.0
20260509092003 52 234 7.8 9.6 0.00 0.10 0.00 97 1005.9
20260509091512 52 243 7.0 10.4 0.00 0.10 0.00 97 1006.0